Location: Beetenbrück
(52.8113°N, 9.5946°E)
Time: 16:38:12
(UTC+00:00)

NOSS 2-1 (D) - Pass Details

Date: 14 April 2026
Orbit: 373 x 1668 km, 63.3° (Epoch: 8 May)

Event Time Altitude Azimuth Distance (km) Brightness Sun altitude
Rises 20:47:46 0° 310° (NW) 2,307 8.1 -19.4°
Reaches altitude 10° 20:49:38 10° 306° (NW) 1,510 6.7 -19.6°
Maximum altitude 20:52:49 57° 228° (SW) 575 3.3 -19.9°
Enters shadow 20:53:12 53° 199° (SSW) 607 3.3 -20.0°
